Regional Weather Roundup
Issued by NWS Cleveland, OH

Home | Current Version | Previous Version | Graphics & Text | Print | Product List | Glossary On
Versions: 1 2 3 4 5 6 7 8 9 10 11 12 13 14 15 16 17 18 19 20 21 22 23 24 25 26 27 28 29 30 31 32 33 34 35 36 37 38 39 40 41 42 43 44 45 46 47 48 49 50
000
ASUS41 KCLE 201800
RWRCLE
OHIO REGIONAL WEATHER ROUNDUP
NATIONAL WEATHER SERVICE WILMINGTON, OH
100 PM EST THU NOV 20 2014

NOTE: "FAIR" INDICATES FEW OR NO CLOUDS BELOW 12,000 FEET WITH NO
SIGNIFICANT WEATHER AND/OR OBSTRUCTIONS TO VISIBILITY.

OHZ001>008-015>018-024>027-034-035-043-044-201900-
   NORTHWEST OHIO

CITY           SKY/WX    TMP DP  RH WIND       PRES   REMARKS
DEFIANCE       CLOUDY    27  12  53 W12G26    30.02S WCI  17
FINDLAY        MOSUNNY   26  14  60 W24G36    30.01F WCI  11
TOLEDO EXPRESS CLOUDY    26  13  57 W23G32    29.98F WCI  11
TOLEDO METCALF CLOUDY    27  14  58 W22G31    29.99F WCI  13
LIMA           MOSUNNY   27  15  61 W24G33    30.03F WCI  12
$$

OHZ009>014-019>023-028>033-038-089-201900-
   NORTHEAST OHIO

CITY           SKY/WX    TMP DP  RH WIND       PRES   REMARKS
CLE-HOPKINS    PTSUNNY   25  12  58 W25G32    30.00F WCI   9
CLE-LAKEFRONT  CLOUDY    27  13  55 SW26G40   29.97F WCI  12
CUY CO. ARPT   PTSUNNY   28  14  54 W17G29    29.95F WCI  16
LORAIN-ELYRIA  CLOUDY    26  14  60 W18G33    29.99F WCI  13
ASHTABULA      PTSUNNY   27  11  51 SW22G30   29.92F WCI  13
AKRON-CANTON   PTSUNNY   25  10  53 W20G26    29.97F WCI  11
WOOSTER        NOT AVBL
MANSFIELD      CLOUDY    23  12  62 SW20G31   29.99F WCI   8
YOUNGSTOWN     FLURRIES  24  12  60 SW16G28   29.95F WCI  11
$$

OHZ042-051>053-060>062-070>072-077>081-201900-
  SOUTHWEST OHIO

CITY           SKY/WX    TMP DP  RH WIND       PRES   REMARKS
CINC-COVINGTON MOSUNNY   29  12  49 W12       30.14F WCI  19
CINC-LUNKEN    SUNNY     30  15  53 SW17      30.18F WCI  18
HAMILTON       MOSUNNY   31  14  49 W12G21    30.15F WCI  22
DAYTON         NOT AVBL
WRIGHT-PAT AFB NOT AVBL
DAYTON GENERAL MOSUNNY   28  13  53 W13G25    30.10F WCI  17
WILMINGTON     SUNNY     27  13  55 SW20      30.09F WCI  13
$$

OHZ036-037-039>041-045>050-054>059-063>069-073>076-082>088-201900-
  CENTRAL AND SOUTHEAST OHIO

CITY           SKY/WX    TMP DP  RH WIND       PRES   REMARKS
COLUMBUS       MOSUNNY   27  12  53 W17G28    30.09F WCI  14
OSU AIRPORT    PTSUNNY   27  13  55 SW18G26   30.07F WCI  14
BOLTON FIELD   PTSUNNY   27  14  59 SW15G26   30.09F WCI  15
RICKENBACK AFB NOT AVBL
NEWARK         CLOUDY    26  12  55 W16       30.07F WCI  14
MARION         CLOUDY    25  13  60 W18G25    30.04F WCI  11
LANCASTER      CLOUDY    27  15  61 SW15G25   30.10F WCI  15
ZANESVILLE     CLOUDY    25  11  55 W15G22    30.07F WCI  13
NEW PHILLY     CLOUDY    27  10  49 W17G28    30.04F WCI  14
$$



USA.gov is the U.S. government's official web portal to all federal, state and local government web resources and services.